Cedar City, UT

11:39 PM MST on January 18, 2017 (GMT -0700)
Cedar City Regional

Weather History for KCDC - April, 2013

Change the Weather History Date:

Saturday, April 6, 2013

  Actual Average Record
Temperature  
Mean Temperature 50 °F 44 °F  
Max Temperature 68 °F 59 °F 78 °F (1960)
Min Temperature 32 °F 29 °F 13 °F (2003)
Degree Days  
Heating Degree Days 15 21  
Month to date heating degree days 96 129  
Since 1 July heating degree days 5376 5463  
Cooling Degree Days 0 0  
Month to date cooling degree days 0 0  
Year to date cooling degree days 0 0  
Moisture  
Dew Point 26 °F    
Average Humidity 50    
Maximum Humidity 82    
Minimum Humidity 18    
Precipitation  
Precipitation 0.00 in 0.05 in 0.37 in (1964)
Month to date precipitation 0.05 0.24  
Year to date precipitation 2.86 3.45  
Sea Level Pressure  
Sea Level Pressure 29.89 in    
Wind  
Wind Speed 4 mph (WSW)    
Max Wind Speed 22 mph    
Max Gust Speed 28 mph    
Visibility 10 miles    
Events      
T = Trace of Precipitation, MM = Missing Value Source: NWS Daily Summary

Daily Weather History Graph

Daily Weather History Graph

Search for Another Location

Airport or City:

Trip Planner

Search our weather history database for the weather conditions in past years. The results will help you decide how hot, cold, wet, or windy it might be!

Date:

Astronomy

Apr. 06, 2013 Rise Set
Actual Time 7:09 AM MDT 8:00 PM MDT
Civil Twilight 6:43 AM MDT 8:26 PM MDT
Nautical Twilight 6:11 AM MDT 8:58 PM MDT
Astronomical Twilight 5:39 AM MDT 9:30 PM MDT
Moon 4:51 AM MDT (4/6) 4:36 PM MDT (4/6)
Length of Visible Light 13h 43m
Length of Day
12h 50m
Waning Crescent, 14% of the Moon is Illuminated
Apr 6
Waning Crescent
Apr 10
New
Apr 18
First Quarter
Apr 25
Full
May 2
Last Quarter

Hourly Weather History & Observations

Time (MDT) Temp. Windchill Dew Point Humidity Pressure Visibility Wind Dir Wind Speed Gust Speed Precip Events Conditions
12:53 AM 43.0 °F 41.3 °F 30.9 °F 62% 29.90 in 10.0 mi SE 3.5 mph - N/A   Clear
1:53 AM 45.0 °F 41.8 °F 30.9 °F 58% 29.87 in 10.0 mi SSE 5.8 mph - N/A   Clear
2:53 AM 39.0 °F 36.8 °F 30.0 °F 70% 29.89 in 10.0 mi South 3.5 mph - N/A   Clear
3:53 AM 37.9 °F 33.5 °F 28.9 °F 70% 29.88 in 10.0 mi ENE 5.8 mph - N/A   Clear
4:53 AM 37.9 °F 34.4 °F 30.0 °F 73% 29.89 in 10.0 mi East 4.6 mph - N/A   Clear
5:53 AM 33.1 °F - 27.0 °F 78% 29.91 in 10.0 mi Calm Calm - N/A   Clear
6:53 AM 32.0 °F - 28.0 °F 85% 29.94 in 10.0 mi Calm Calm - N/A   Clear
7:53 AM 37.0 °F - 28.9 °F 73% 29.95 in 10.0 mi Calm Calm - N/A   Clear
8:53 AM 42.1 °F - 33.1 °F 70% 29.96 in 10.0 mi Calm Calm - N/A   Overcast
9:53 AM 51.1 °F - 30.0 °F 44% 29.94 in 10.0 mi Calm Calm - N/A   Mostly Cloudy
10:53 AM 57.9 °F - 32.0 °F 37% 29.93 in 10.0 mi Calm Calm - N/A   Mostly Cloudy
11:53 AM 62.1 °F - 25.0 °F 24% 29.90 in 10.0 mi WNW 4.6 mph - N/A   Mostly Cloudy
12:53 PM 64.0 °F - 26.1 °F 24% 29.89 in 10.0 mi WNW 12.7 mph 18.4 mph N/A   Clear
1:53 PM 66.0 °F - 21.9 °F 19% 29.86 in 10.0 mi WSW 13.8 mph 24.2 mph N/A   Clear
2:53 PM 66.9 °F - 21.0 °F 17% 29.86 in 10.0 mi West 13.8 mph 23.0 mph N/A   Partly Cloudy
3:53 PM 64.9 °F - 21.0 °F 19% 29.84 in 10.0 mi WNW 19.6 mph 24.2 mph N/A   Clear
4:53 PM 64.9 °F - 21.9 °F 19% 29.83 in 10.0 mi West 13.8 mph 23.0 mph N/A   Clear
5:53 PM 66.0 °F - 21.9 °F 19% 29.85 in 10.0 mi Variable 6.9 mph - N/A   Clear
6:53 PM 63.0 °F - 21.0 °F 20% 29.85 in 10.0 mi West 16.1 mph 20.7 mph N/A   Clear
7:53 PM 55.0 °F - 21.9 °F 28% 29.88 in 10.0 mi NW 4.6 mph - N/A   Clear
8:53 PM 50.0 °F - 19.0 °F 29% 29.89 in 10.0 mi Calm Calm - N/A   Clear
9:53 PM 48.9 °F - 21.0 °F 33% 29.87 in 10.0 mi SSE 3.5 mph - N/A   Clear
10:53 PM 48.0 °F - 21.0 °F 34% 29.85 in 10.0 mi Calm Calm - N/A   Overcast
11:53 PM 45.0 °F 41.8 °F 21.9 °F 40% 29.85 in 10.0 mi SSE 5.8 mph - N/A   Clear